When you browse on this site, cookies collect data to enhance your experience and personalize the content and advertising you see.
Visit our Privacy Policy to learn more. By continuing to use the site, you agree to this use of cookies and data.
  • In Latvia
  • List of Countries
  • For 7 days
  • Water Temperature
  • Weather Map
  • Weather Widgets
  • user-avatar
    Login

    Hourly Weather Sergeycevo

    Today, 21 February, Friday

    Time Temperature Precipitation Wind Pressure Humidity
    00:00 +1°C° 0 mm 1 mps 748 mmHg 93%
    01:00 -1°C° 0 mm 2 mps 748 mmHg 93%
    02:00 -1°C° 0 mm 2 mps 749 mmHg 94%
    03:00 -1°C° 0 mm 2 mps 748 mmHg 93%
    04:00 -1°C° 0 mm 2 mps 748 mmHg 91%
    05:00 -1°C° 0 mm 2 mps 747 mmHg 90%
    06:00 -1°C° 0 mm 2 mps 747 mmHg 88%
    07:00 -1°C° 0 mm 3 mps 747 mmHg 86%
    08:00 -1°C° 0 mm 3 mps 747 mmHg 83%
    15:00 +2°C° 0 mm 5 mps 747 mmHg 66%
    16:00 +1°C° 0 mm 4 mps 747 mmHg 70%
    17:00 0°C° 0 mm 4 mps 746 mmHg 73%
    18:00 0°C° 0 mm 4 mps 747 mmHg 74%
    19:00 0°C° 0 mm 4 mps 747 mmHg 76%
    20:00 -1°C° 0 mm 4 mps 747 mmHg 78%
    21:00 -1°C° 0 mm 4 mps 747 mmHg 79%
    22:00 -1°C° 0 mm 4 mps 747 mmHg 79%
    23:00 -1°C° 0 mm 4 mps 747 mmHg 80%

    Tomorrow, 22 February, Saturday

    Time Temperature Precipitation Wind Pressure Humidity
    00:00 -1°C° 0 mm 4 mps 748 mmHg 84%
    01:00 -1°C° 0 mm 4 mps 748 mmHg 88%
    02:00 -1°C° 0 mm 4 mps 748 mmHg 91%
    03:00 -1°C° 0 mm 4 mps 748 mmHg 92%
    04:00 -1°C° 0 mm 4 mps 748 mmHg 92%
    05:00 0°C° 0 mm 3 mps 748 mmHg 93%
    06:00 -1°C° 0 mm 4 mps 748 mmHg 93%
    07:00 -1°C° 0 mm 4 mps 748 mmHg 93%
    08:00 -1°C° 0 mm 5 mps 748 mmHg 92%
    09:00 -1°C° 0 mm 5 mps 748 mmHg 90%
    10:00 -1°C° 0 mm 5 mps 747 mmHg 87%
    11:00 -1°C° 0 mm 6 mps 747 mmHg 85%
    12:00 -1°C° 0 mm 6 mps 746 mmHg 82%
    13:00 +1°C° 0 mm 6 mps 745 mmHg 79%
    14:00 +1°C° 0 mm 6 mps 744 mmHg 76%
    15:00 0°C° 0 mm 7 mps 743 mmHg 75%
    16:00 0°C° 0 mm 7 mps 742 mmHg 73%
    17:00 +2°C° 0 mm 7 mps 740 mmHg 72%
    18:00 0°C° 0.8 mm 8 mps 739 mmHg 79%
    19:00 -1°C° 0.8 mm 9 mps 738 mmHg 87%
    20:00 -2°C° 0.8 mm 10 mps 736 mmHg 94%
    21:00 -1°C° 0.8 mm 9 mps 735 mmHg 93%
    22:00 -1°C° 0.8 mm 9 mps 734 mmHg 93%
    23:00 0°C° 0.8 mm 8 mps 733 mmHg 93%

    Day after tomorrow, 23 February, Sunday

    Time Temperature Precipitation Wind Pressure Humidity
    00:00 0°C° 0.8 mm 7 mps 732 mmHg 91%
    01:00 0°C° 0.8 mm 7 mps 732 mmHg 89%
    02:00 +1°C° 0.8 mm 6 mps 731 mmHg 88%
    03:00 +1°C° 0.1 mm 5 mps 731 mmHg 85%
    04:00 0°C° 0.1 mm 5 mps 731 mmHg 82%
    05:00 0°C° 0.1 mm 5 mps 731 mmHg 80%
    06:00 -1°C° 0 mm 5 mps 731 mmHg 79%
    07:00 -1°C° 0 mm 5 mps 731 mmHg 79%
    08:00 -1°C° 0 mm 5 mps 731 mmHg 79%
    09:00 -1°C° 0 mm 5 mps 731 mmHg 78%
    10:00 0°C° 0 mm 5 mps 731 mmHg 77%
    11:00 -1°C° 0 mm 6 mps 731 mmHg 76%
    12:00 -1°C° 0.1 mm 6 mps 732 mmHg 74%
    13:00 +1°C° 0.1 mm 6 mps 732 mmHg 72%
    14:00 +1°C° 0.1 mm 6 mps 732 mmHg 70%
    15:00 +1°C° 0.5 mm 6 mps 731 mmHg 76%
    16:00 -1°C° 0.5 mm 6 mps 731 mmHg 82%
    17:00 -1°C° 0.5 mm 6 mps 731 mmHg 88%
    18:00 0°C° 0.2 mm 5 mps 731 mmHg 87%
    19:00 0°C° 0.2 mm 5 mps 731 mmHg 85%
    20:00 -1°C° 0.2 mm 5 mps 731 mmHg 84%
    21:00 -1°C° 0.1 mm 5 mps 730 mmHg 87%
    22:00 -1°C° 0.1 mm 5 mps 730 mmHg 91%
    23:00 -1°C° 0.1 mm 5 mps 730 mmHg 94%

    24 February, Monday

    Time Temperature Precipitation Wind Pressure Humidity
    00:00 -1°C° 0 mm 5 mps 729 mmHg 94%
    01:00 -1°C° 0 mm 5 mps 729 mmHg 94%
    02:00 -2°C° 0 mm 4 mps 729 mmHg 95%
    03:00 -2°C° 0.3 mm 4 mps 729 mmHg 95%
    04:00 -2°C° 0.3 mm 4 mps 728 mmHg 95%
    05:00 -2°C° 0.3 mm 4 mps 728 mmHg 95%
    06:00 -1°C° 0.4 mm 4 mps 729 mmHg 95%
    07:00 -1°C° 0.4 mm 4 mps 729 mmHg 95%
    08:00 -1°C° 0.4 mm 4 mps 730 mmHg 95%
    09:00 -1°C° 0.1 mm 5 mps 731 mmHg 85%
    10:00 -2°C° 0.1 mm 6 mps 732 mmHg 76%
    11:00 -1°C° 0.1 mm 6 mps 733 mmHg 67%
    12:00 -1°C° 0 mm 6 mps 733 mmHg 65%
    13:00 -1°C° 0 mm 7 mps 734 mmHg 64%
    14:00 -1°C° 0 mm 7 mps 735 mmHg 62%
    15:00 -2°C° 0 mm 6 mps 736 mmHg 62%
    16:00 -2°C° 0 mm 6 mps 736 mmHg 63%
    17:00 -2°C° 0 mm 5 mps 737 mmHg 63%
    18:00 -2°C° 0 mm 5 mps 737 mmHg 64%
    19:00 -4°C° 0 mm 5 mps 738 mmHg 64%
    20:00 -4°C° 0 mm 5 mps 739 mmHg 65%
    21:00 -4°C° 0 mm 5 mps 739 mmHg 66%
    22:00 -4°C° 0 mm 5 mps 740 mmHg 68%
    23:00 -4°C° 0 mm 4 mps 740 mmHg 69%

    25 February, Tuesday

    Time Temperature Precipitation Wind Pressure Humidity
    00:00 -4°C° 0 mm 4 mps 741 mmHg 71%
    01:00 -4°C° 0 mm 3 mps 741 mmHg 73%
    02:00 -4°C° 0 mm 3 mps 742 mmHg 75%
    03:00 -4°C° 0 mm 3 mps 741 mmHg 76%
    04:00 -3°C° 0 mm 2 mps 741 mmHg 78%
    05:00 -3°C° 0 mm 2 mps 741 mmHg 80%
    06:00 -3°C° 0 mm 2 mps 741 mmHg 77%
    07:00 -3°C° 0 mm 2 mps 740 mmHg 75%
    08:00 -4°C° 0 mm 3 mps 740 mmHg 73%
    09:00 -2°C° 0 mm 3 mps 740 mmHg 66%
    10:00 -1°C° 0 mm 4 mps 739 mmHg 59%
    11:00 0°C° 0 mm 4 mps 738 mmHg 52%
    12:00 0°C° 0 mm 5 mps 738 mmHg 52%
    13:00 0°C° 0 mm 5 mps 737 mmHg 51%
    14:00 -1°C° 0 mm 6 mps 736 mmHg 51%
    15:00 -2°C° 0.4 mm 6 mps 735 mmHg 66%
    16:00 -2°C° 0.4 mm 6 mps 734 mmHg 80%
    17:00 -3°C° 0.4 mm 6 mps 733 mmHg 95%
    18:00 -2°C° 0.5 mm 5 mps 733 mmHg 95%
    19:00 -1°C° 0.5 mm 5 mps 732 mmHg 95%
    20:00 0°C° 0.5 mm 5 mps 732 mmHg 96%
    21:00 0°C° 0.1 mm 4 mps 732 mmHg 94%
    22:00 -1°C° 0.1 mm 4 mps 732 mmHg 93%
    23:00 -1°C° 0.1 mm 4 mps 731 mmHg 91%

    26 February, Wednesday

    Time Temperature Precipitation Wind Pressure Humidity
    00:00 -1°C° 0 mm 4 mps 731 mmHg 91%
    01:00 0°C° 0 mm 3 mps 731 mmHg 91%
    02:00 -1°C° 0 mm 3 mps 731 mmHg 91%
    03:00 -1°C° 0 mm 3 mps 731 mmHg 91%
    04:00 -1°C° 0 mm 3 mps 731 mmHg 92%
    05:00 -2°C° 0 mm 3 mps 731 mmHg 93%
    06:00 -1°C° 0 mm 3 mps 730 mmHg 92%
    07:00 -1°C° 0 mm 3 mps 730 mmHg 91%
    08:00 -1°C° 0 mm 2 mps 730 mmHg 90%
    09:00 -1°C° 0.1 mm 2 mps 730 mmHg 91%
    10:00 +1°C° 0.1 mm 2 mps 730 mmHg 92%
    11:00 +1°C° 0.1 mm 2 mps 730 mmHg 93%
    12:00 +1°C° 0.1 mm 3 mps 730 mmHg 88%
    13:00 0°C° 0.1 mm 4 mps 730 mmHg 84%
    14:00 0°C° 0.1 mm 4 mps 730 mmHg 80%
    15:00 0°C° 0 mm 4 mps 730 mmHg 80%
    16:00 0°C° 0 mm 3 mps 730 mmHg 80%
    17:00 0°C° 0 mm 3 mps 730 mmHg 80%
    18:00 +1°C° 0 mm 2 mps 730 mmHg 81%
    19:00 +1°C° 0 mm 2 mps 730 mmHg 81%
    20:00 +1°C° 0 mm 2 mps 730 mmHg 81%
    21:00 -1°C° 0 mm 2 mps 730 mmHg 83%
    22:00 -1°C° 0 mm 2 mps 730 mmHg 84%
    23:00 -1°C° 0 mm 2 mps 730 mmHg 86%
    Show more